| time (UTC) | temp C | wind direction | speed KPH | gust KPH | rain 1hr cm | rain 24hr cm | rain mn cm | humidity % | barometer mb |
| 20260507030703 | 6 | 319 | 1.6 | 4.8 | 0.00 | 1.50 | 1.22 | 99 | 1016.1 |
| 20260507030203 | 6 | 324 | 3.2 | 4.8 | 0.00 | 1.52 | 1.22 | 99 | 1016.1 |
| 20260507025702 | 6 | 319 | 4.8 | 4.8 | 0.00 | 1.55 | 1.22 | 99 | 1016.2 |
| 20260507024703 | 6 | 292 | 1.6 | 3.2 | 0.00 | 1.57 | 1.22 | 99 | 1016.0 |
| 20260507024203 | 6 | 321 | 1.6 | 3.2 | 0.00 | 1.57 | 1.22 | 99 | 1016.4 |
| 20260507023703 | 6 | 284 | 0.0 | 3.2 | 0.00 | 1.57 | 1.22 | 99 | 1015.9 |
| 20260507023203 | 6 | 22 | 1.6 | 3.2 | 0.00 | 1.57 | 1.22 | 99 | 1016.2 |
| 20260507022703 | 6 | 285 | 0.0 | 3.2 | 0.00 | 1.57 | 1.22 | 99 | 1016.2 |
| 20260507021203 | 6 | 331 | 1.6 | 3.2 | 0.00 | 1.57 | 1.22 | 99 | 1016.2 |
| 20260507020703 | 6 | 280 | 1.6 | 3.2 | 0.00 | 1.57 | 1.22 | 99 | 1016.4 |
| 20260507020203 | 6 | 282 | 1.6 | 3.2 | 0.00 | 1.57 | 1.22 | 99 | 1016.2 |
| 20260507015703 | 6 | 246 | 1.6 | 1.6 | 0.00 | 1.57 | 1.22 | 99 | 1016.2 |
| 20260507015203 | 6 | 244 | 0.0 | 3.2 | 0.00 | 1.60 | 1.22 | 99 | 1016.2 |
| 20260507014703 | 6 | 283 | 1.6 | 3.2 | 0.00 | 1.60 | 1.22 | 99 | 1016.4 |
| 20260507013702 | 6 | 304 | 0.0 | 3.2 | 0.00 | 1.60 | 1.22 | 99 | 1016.4 |
| 20260507012703 | 6 | 288 | 1.6 | 8.0 | 0.00 | 1.60 | 1.22 | 99 | 1016.4 |
| 20260507012203 | 6 | 316 | 3.2 | 4.8 | 0.00 | 1.60 | 1.22 | 99 | 1016.4 |
| 20260507011704 | 6 | 301 | 3.2 | 8.0 | 0.00 | 1.60 | 1.22 | 99 | 1016.6 |
| 20260507011203 | 6 | 291 | 3.2 | 4.8 | 0.00 | 1.60 | 1.22 | 99 | 1016.2 |
| 20260507010703 | 6 | 252 | 3.2 | 4.8 | 0.00 | 1.60 | 1.22 | 99 | 1016.2 |
| 20260507010203 | 6 | 275 | 1.6 | 4.8 | 0.00 | 1.60 | 1.22 | 99 | 1016.2 |
| 20260507005703 | 6 | 295 | 3.2 | 4.8 | 0.00 | 1.60 | 1.22 | 99 | 1016.2 |
| 20260507004703 | 6 | 267 | 3.2 | 8.0 | 0.00 | 1.60 | 1.22 | 99 | 1015.9 |
| 20260507004203 | 6 | 237 | 0.0 | 11.3 | 0.00 | 1.60 | 1.22 | 99 | 1015.9 |
| 20260507003703 | 6 | 301 | 3.2 | 9.7 | 0.00 | 1.60 | 1.22 | 99 | 1016.1 |
| 20260507003203 | 6 | 310 | 6.4 | 11.3 | 0.00 | 1.60 | 1.22 | 99 | 1015.7 |
| 20260507002703 | 7 | 287 | 4.8 | 9.7 | 0.00 | 1.60 | 1.22 | 99 | 1015.9 |
| 20260507001703 | 7 | 268 | 4.8 | 9.7 | 0.00 | 1.65 | 1.22 | 99 | 1015.2 |
| 20260507001203 | 7 | 302 | 3.2 | 9.7 | 0.00 | 1.65 | 1.22 | 99 | 1015.2 |
| 20260507000703 | 7 | 272 | 3.2 | 4.8 | 0.00 | 1.65 | 1.22 | 99 | 1015.2 |
| 20260507000205 | 7 | 269 | 3.2 | 4.8 | 0.00 | 1.65 | 1.22 | 99 | 1015.0 |
| 20260506235704 | 7 | 255 | 1.6 | 3.2 | 0.00 | 1.65 | 1.22 | 99 | 1014.7 |
| 20260506235203 | 7 | 246 | 0.0 | 3.2 | 0.00 | 1.65 | 1.22 | 99 | 1014.5 |
| 20260506234703 | 7 | 273 | 1.6 | 3.2 | 0.00 | 1.65 | 1.22 | 99 | 1014.5 |
| 20260506234204 | 7 | 270 | 1.6 | 3.2 | 0.00 | 1.65 | 1.22 | 99 | 1014.5 |
| 20260506233703 | 7 | 279 | 1.6 | 8.0 | 0.00 | 1.65 | 1.22 | 99 | 1014.5 |
| 20260506233203 | 7 | 319 | 4.8 | 9.7 | 0.00 | 1.65 | 1.22 | 99 | 1014.9 |
| 20260506232704 | 7 | 337 | 3.2 | 8.0 | 0.00 | 1.65 | 1.22 | 99 | 1014.5 |
| 20260506232203 | 7 | 316 | 4.8 | 12.9 | 0.00 | 1.65 | 1.22 | 99 | 1014.5 |
| 20260506231704 | 7 | 315 | 4.8 | 11.3 | 0.00 | 1.65 | 1.22 | 99 | 1014.5 |
| 20260506231204 | 7 | 308 | 3.2 | 12.9 | 0.00 | 1.65 | 1.22 | 99 | 1014.5 |
| 20260506230704 | 7 | 283 | 3.2 | 8.0 | 0.00 | 1.65 | 1.22 | 99 | 1014.5 |
| 20260506230203 | 7 | 347 | 3.2 | 11.3 | 0.00 | 1.65 | 1.22 | 99 | 1014.5 |
| 20260506225703 | 7 | 312 | 6.4 | 12.9 | 0.00 | 1.65 | 1.22 | 99 | 1014.7 |
| 20260506225204 | 7 | 323 | 3.2 | 11.3 | 0.00 | 1.65 | 1.22 | 99 | 1014.5 |
| 20260506224204 | 7 | 347 | 4.8 | 12.9 | 0.00 | 1.65 | 1.22 | 99 | 1014.5 |
| 20260506223703 | 7 | 300 | 6.4 | 19.3 | 0.00 | 1.65 | 1.22 | 99 | 1014.5 |
| 20260506223203 | 7 | 317 | 9.7 | 19.3 | 0.00 | 1.65 | 1.22 | 99 | 1014.3 |
| 20260506222203 | 7 | 307 | 9.7 | 19.3 | 0.00 | 1.65 | 1.22 | 99 | 1014.5 |
| 20260506221703 | 7 | 286 | 8.0 | 14.5 | 0.00 | 1.65 | 1.22 | 99 | 1014.3 |
| 20260506221203 | 7 | 328 | 8.0 | 12.9 | 0.00 | 1.65 | 1.22 | 99 | 1014.2 |
| 20260506220704 | 7 | 319 | 9.7 | 16.1 | 0.00 | 1.65 | 1.22 | 99 | 1014.4 |
| 20260506220204 | 8 | 278 | 3.2 | 11.3 | 0.00 | 1.65 | 1.22 | 99 | 1014.1 |
| 20260506215204 | 8 | 294 | 4.8 | 19.3 | 0.00 | 1.65 | 1.22 | 99 | 1013.9 |
| 20260506214704 | 8 | 301 | 8.0 | 14.5 | 0.00 | 1.65 | 1.22 | 99 | 1013.9 |
| 20260506214203 | 8 | 350 | 4.8 | 19.3 | 0.00 | 1.65 | 1.22 | 99 | 1013.9 |
| 20260506213704 | 8 | 308 | 4.8 | 12.9 | 0.03 | 1.65 | 1.22 | 99 | 1013.9 |
| 20260506213203 | 8 | 330 | 6.4 | 16.1 | 0.03 | 1.65 | 1.22 | 99 | 1013.9 |
| 20260506212703 | 8 | 292 | 6.4 | 19.3 | 0.03 | 1.65 | 1.22 | 99 | 1013.9 |
| 20260506211702 | 8 | 317 | 4.8 | 16.1 | 0.05 | 1.65 | 1.22 | 99 | 1013.5 |
| 20260506211202 | 8 | 330 | 8.0 | 12.9 | 0.05 | 1.65 | 1.22 | 99 | 1013.5 |
| 20260506210703 | 8 | 303 | 4.8 | 11.3 | 0.08 | 1.65 | 1.22 | 99 | 1013.4 |
| 20260506210203 | 8 | 310 | 4.8 | 12.9 | 0.08 | 1.65 | 1.22 | 99 | 1013.5 |
| 20260506205702 | 8 | 309 | 8.0 | 12.9 | 0.08 | 1.65 | 1.22 | 99 | 1013.3 |
| 20260506205202 | 8 | 306 | 8.0 | 16.1 | 0.08 | 1.65 | 1.22 | 99 | 1013.2 |
| 20260506204203 | 8 | 301 | 8.0 | 12.9 | 0.10 | 1.65 | 1.22 | 99 | 1013.2 |
| 20260506203202 | 8 | 298 | 4.8 | 12.9 | 0.08 | 1.63 | 1.19 | 99 | 1012.8 |
| 20260506202703 | 8 | 311 | 8.0 | 12.9 | 0.10 | 1.63 | 1.19 | 99 | 1013.2 |
| 20260506202203 | 8 | 340 | 6.4 | 14.5 | 0.08 | 1.60 | 1.17 | 99 | 1013.0 |
| 20260506201702 | 8 | 314 | 4.8 | 19.3 | 0.10 | 1.60 | 1.17 | 99 | 1012.8 |
| 20260506200703 | 8 | 302 | 8.0 | 14.5 | 0.10 | 1.57 | 1.14 | 99 | 1012.8 |
| 20260506200202 | 8 | 313 | 6.4 | 14.5 | 0.10 | 1.57 | 1.14 | 99 | 1012.8 |
| 20260506195703 | 8 | 293 | 4.8 | 16.1 | 0.10 | 1.57 | 1.14 | 99 | 1012.8 |
| 20260506195203 | 8 | 285 | 6.4 | 14.5 | 0.10 | 1.57 | 1.14 | 99 | 1012.8 |
| 20260506194703 | 8 | 283 | 4.8 | 14.5 | 0.08 | 1.55 | 1.12 | 99 | 1012.8 |
| 20260506194203 | 8 | 309 | 6.4 | 11.3 | 0.08 | 1.55 | 1.12 | 99 | 1012.8 |
| 20260506193702 | 8 | 299 | 3.2 | 11.3 | 0.08 | 1.55 | 1.12 | 99 | 1012.8 |
| 20260506192703 | 8 | 276 | 3.2 | 11.3 | 0.05 | 1.52 | 1.09 | 99 | 1012.8 |
| 20260506192202 | 8 | 300 | 4.8 | 11.3 | 0.05 | 1.55 | 1.09 | 99 | 1012.8 |
| 20260506191202 | 8 | 326 | 4.8 | 11.3 | 0.03 | 1.57 | 1.04 | 99 | 1012.8 |
| 20260506190703 | 8 | 327 | 4.8 | 12.9 | 0.05 | 1.57 | 1.04 | 99 | 1012.8 |
| 20260506190203 | 8 | 316 | 4.8 | 11.3 | 0.05 | 1.57 | 1.04 | 99 | 1012.6 |
| 20260506185203 | 8 | 317 | 4.8 | 11.3 | 0.08 | 1.57 | 1.04 | 99 | 1012.5 |
| 20260506184703 | 8 | 288 | 6.4 | 11.3 | 0.10 | 1.57 | 1.04 | 99 | 1012.8 |
| 20260506184203 | 8 | 271 | 3.2 | 8.0 | 0.10 | 1.57 | 1.04 | 99 | 1012.5 |
| 20260506183704 | 8 | 317 | 3.2 | 9.7 | 0.10 | 1.57 | 1.04 | 99 | 1012.5 |
| 20260506183203 | 8 | 311 | 4.8 | 11.3 | 0.13 | 1.57 | 1.04 | 99 | 1012.5 |
| 20260506181703 | 8 | 323 | 3.2 | 9.7 | 0.10 | 1.55 | 1.02 | 99 | 1012.2 |
| 20260506180703 | 8 | 329 | 3.2 | 11.3 | 0.10 | 1.52 | 0.99 | 99 | 1012.5 |
| 20260506180203 | 7 | 316 | 6.4 | 11.3 | 0.10 | 1.52 | 0.99 | 99 | 1012.2 |
| 20260506175703 | 7 | 320 | 4.8 | 9.7 | 0.08 | 1.50 | 0.97 | 99 | 1012.4 |
| 20260506175203 | 7 | 298 | 4.8 | 9.7 | 0.08 | 1.50 | 0.97 | 99 | 1012.3 |
| 20260506173703 | 7 | 316 | 4.8 | 9.7 | 0.05 | 1.47 | 0.94 | 99 | 1012.3 |
| 20260506173204 | 7 | 294 | 6.4 | 11.3 | 0.03 | 1.45 | 0.91 | 99 | 1012.2 |
| 20260506172703 | 7 | 316 | 3.2 | 9.7 | 0.03 | 1.45 | 0.91 | 99 | 1012.2 |
| 20260506172203 | 7 | 313 | 4.8 | 9.7 | 0.03 | 1.45 | 0.91 | 99 | 1012.2 |
| 20260506171703 | 7 | 316 | 4.8 | 9.7 | 0.03 | 1.45 | 0.91 | 99 | 1012.2 |
| 20260506171203 | 7 | 307 | 4.8 | 8.0 | 0.03 | 1.45 | 0.91 | 99 | 1012.2 |
| 20260506170703 | 7 | 327 | 4.8 | 9.7 | 0.00 | 1.42 | 0.89 | 99 | 1012.2 |
| 20260506170203 | 7 | 319 | 4.8 | 8.0 | 0.00 | 1.42 | 0.89 | 99 | 1012.2 |
| 20260506165704 | 7 | 293 | 4.8 | 9.7 | 0.03 | 1.42 | 0.89 | 99 | 1012.2 |
| 20260506165203 | 7 | 336 | 3.2 | 11.3 | 0.03 | 1.42 | 0.89 | 99 | 1012.2 |
| 20260506163703 | 7 | 321 | 3.2 | 8.0 | 0.03 | 1.42 | 0.89 | 99 | 1012.5 |
| 20260506163203 | 7 | 320 | 4.8 | 9.7 | 0.03 | 1.42 | 0.89 | 99 | 1012.5 |
| 20260506162703 | 7 | 296 | 3.2 | 4.8 | 0.03 | 1.42 | 0.89 | 99 | 1012.5 |
| 20260506162204 | 7 | 305 | 3.2 | 4.8 | 0.03 | 1.42 | 0.89 | 99 | 1012.5 |
| 20260506161703 | 7 | 315 | 4.8 | 9.7 | 0.05 | 1.42 | 0.89 | 99 | 1012.5 |
| 20260506160703 | 7 | 278 | 3.2 | 4.8 | 0.08 | 1.42 | 0.89 | 99 | 1012.5 |
| 20260506160203 | 7 | 305 | 3.2 | 8.0 | 0.10 | 1.42 | 0.89 | 99 | 1012.5 |
| 20260506155203 | 7 | 306 | 3.2 | 12.9 | 0.13 | 1.40 | 0.86 | 99 | 1012.5 |
| 20260506154704 | 7 | 324 | 4.8 | 9.7 | 0.15 | 1.40 | 0.86 | 99 | 1012.8 |
| 20260506154203 | 7 | 336 | 3.2 | 4.8 | 0.15 | 1.40 | 0.86 | 99 | 1012.5 |
| 20260506153703 | 7 | 3 | 4.8 | 9.7 | 0.18 | 1.40 | 0.86 | 99 | 1012.6 |
| 20260506153203 | 6 | 37 | 3.2 | 8.0 | 0.18 | 1.40 | 0.86 | 99 | 1012.5 |
| 20260506152703 | 7 | 30 | 4.8 | 9.7 | 0.20 | 1.40 | 0.86 | 99 | 1012.2 |
| 20260506152204 | 6 | 334 | 3.2 | 8.0 | 0.20 | 1.40 | 0.86 | 99 | 1012.2 |
| 20260506151704 | 6 | 303 | 3.2 | 4.8 | 0.18 | 1.37 | 0.84 | 99 | 1012.5 |
| 20260506151203 | 6 | 345 | 3.2 | 8.0 | 0.20 | 1.37 | 0.84 | 99 | 1012.2 |
| 20260506150204 | 7 | 296 | 4.8 | 8.0 | 0.18 | 1.32 | 0.79 | 99 | 1012.5 |
| 20260506145703 | 7 | 335 | 3.2 | 4.8 | 0.15 | 1.30 | 0.76 | 99 | 1012.5 |
| 20260506145203 | 7 | 322 | 4.8 | 8.0 | 0.15 | 1.27 | 0.74 | 99 | 1012.5 |
| 20260506144704 | 7 | 286 | 1.6 | 4.8 | 0.15 | 1.24 | 0.71 | 99 | 1012.5 |
| 20260506144203 | 7 | 246 | 3.2 | 4.8 | 0.18 | 1.24 | 0.71 | 99 | 1012.5 |
| 20260506143703 | 6 | 288 | 3.2 | 4.8 | 0.20 | 1.22 | 0.69 | 99 | 1012.4 |
| 20260506143204 | 6 | 322 | 3.2 | 4.8 | 0.23 | 1.22 | 0.69 | 99 | 1012.3 |
| 20260506142203 | 6 | 342 | 6.4 | 11.3 | 0.28 | 1.19 | 0.66 | 99 | 1012.5 |
| 20260506141704 | 6 | 338 | 8.0 | 11.3 | 0.28 | 1.19 | 0.66 | 99 | 1012.4 |
| 20260506140703 | 6 | 353 | 4.8 | 9.7 | 0.30 | 1.17 | 0.64 | 99 | 1012.5 |
| 20260506140203 | 6 | 321 | 4.8 | 8.0 | 0.30 | 1.14 | 0.61 | 99 | 1012.5 |
| 20260506135703 | 6 | 341 | 4.8 | 9.7 | 0.33 | 1.14 | 0.61 | 99 | 1012.3 |
| 20260506135203 | 6 | 323 | 3.2 | 8.0 | 0.30 | 1.12 | 0.58 | 99 | 1012.5 |
| 20260506134703 | 7 | 334 | 4.8 | 9.7 | 0.30 | 1.09 | 0.56 | 99 | 1012.6 |
| 20260506134204 | 7 | 321 | 6.4 | 12.9 | 0.28 | 1.07 | 0.53 | 99 | 1012.8 |
| 20260506133704 | 7 | 312 | 4.8 | 8.0 | 0.25 | 1.02 | 0.48 | 99 | 1012.5 |
| 20260506133203 | 7 | 333 | 4.8 | 9.7 | 0.25 | 0.99 | 0.46 | 99 | 1012.4 |
| 20260506132204 | 7 | 353 | 4.8 | 9.7 | 0.20 | 0.91 | 0.38 | 99 | 1012.3 |
| 20260506131704 | 7 | 335 | 4.8 | 9.7 | 0.20 | 0.91 | 0.38 | 99 | 1012.2 |
| 20260506131203 | 7 | 297 | 4.8 | 9.7 | 0.18 | 0.86 | 0.33 | 99 | 1012.2 |
| 20260506130703 | 7 | 337 | 3.2 | 9.7 | 0.18 | 0.86 | 0.33 | 99 | 1012.2 |
| 20260506130203 | 7 | 355 | 6.4 | 9.7 | 0.15 | 0.84 | 0.30 | 99 | 1012.2 |
| 20260506125704 | 7 | 2 | 3.2 | 8.0 | 0.13 | 0.81 | 0.28 | 99 | 1012.2 |
| 20260506125204 | 7 | 352 | 4.8 | 9.7 | 0.15 | 0.81 | 0.28 | 99 | 1012.2 |
| 20260506124703 | 7 | 343 | 4.8 | 9.7 | 0.13 | 0.79 | 0.25 | 99 | 1012.2 |
| 20260506124203 | 7 | 344 | 3.2 | 8.0 | 0.15 | 0.79 | 0.25 | 99 | 1012.3 |
| 20260506123704 | 7 | 330 | 4.8 | 9.7 | 0.13 | 0.76 | 0.23 | 99 | 1012.2 |
| 20260506123204 | 7 | 292 | 4.8 | 8.0 | 0.10 | 0.74 | 0.20 | 99 | 1012.2 |
| 20260506122703 | 7 | 326 | 4.8 | 8.0 | 0.13 | 0.74 | 0.20 | 99 | 1012.2 |
| 20260506122203 | 7 | 313 | 4.8 | 9.7 | 0.13 | 0.71 | 0.18 | 99 | 1012.2 |
| 20260506121704 | 7 | 272 | 3.2 | 8.0 | 0.13 | 0.71 | 0.18 | 99 | 1012.3 |
| 20260506120702 | 7 | 277 | 3.2 | 4.8 | 0.15 | 0.69 | 0.15 | 99 | 1012.3 |
| 20260506120202 | 7 | 250 | 4.8 | 9.7 | 0.15 | 0.69 | 0.15 | 99 | 1012.8 |
| 20260506115702 | 7 | 92 | 3.2 | 8.0 | 0.18 | 0.69 | 0.15 | 99 | 1011.8 |
| 20260506115202 | 7 | 262 | 4.8 | 8.0 | 0.15 | 0.66 | 0.13 | 99 | 1012.5 |
| 20260506114703 | 7 | 127 | 3.2 | 4.8 | 0.15 | 0.66 | 0.13 | 99 | 1012.4 |
| 20260506114202 | 7 | 286 | 3.2 | 4.8 | 0.15 | 0.64 | 0.10 | 99 | 1012.3 |
| 20260506113703 | 7 | 225 | 0.0 | 4.8 | 0.15 | 0.64 | 0.10 | 99 | 1012.4 |
| 20260506113203 | 7 | 267 | 1.6 | 3.2 | 0.15 | 0.64 | 0.10 | 99 | 1012.5 |
| 20260506112703 | 7 | 301 | 1.6 | 4.8 | 0.13 | 0.61 | 0.08 | 99 | 1012.8 |
| 20260506111703 | 7 | 284 | 1.6 | 3.2 | 0.13 | 0.58 | 0.05 | 98 | 1012.5 |
| 20260506111203 | 7 | 303 | 3.2 | 3.2 | 0.10 | 0.56 | 0.03 | 97 | 1012.5 |
| 20260506110703 | 7 | 12 | 1.6 | 4.8 | 0.08 | 0.53 | 0.00 | 97 | 1012.5 |
| 20260506110202 | 7 | 22 | 1.6 | 3.2 | 0.08 | 0.53 | 0.00 | 97 | 1012.4 |
| 20260506105703 | 7 | 33 | 1.6 | 3.2 | 0.05 | 0.51 | 0.51 | 97 | 1012.7 |
| 20260506105203 | 6 | 73 | 1.6 | 8.0 | 0.05 | 0.51 | 0.51 | 97 | 1012.5 |
| 20260506104702 | 7 | 43 | 1.6 | 4.8 | 0.08 | 0.51 | 0.51 | 97 | 1012.3 |
| 20260506104203 | 7 | 125 | 3.2 | 4.8 | 0.05 | 0.48 | 0.48 | 97 | 1012.7 |
| 20260506103703 | 7 | 28 | 3.2 | 4.8 | 0.05 | 0.48 | 0.48 | 97 | 1012.8 |
| 20260506103202 | 7 | 320 | 1.6 | 4.8 | 0.05 | 0.48 | 0.48 | 98 | 1012.8 |
| 20260506102703 | 6 | 37 | 4.8 | 9.7 | 0.05 | 0.48 | 0.48 | 98 | 1012.8 |
| 20260506101203 | 7 | 316 | 3.2 | 8.0 | 0.05 | 0.46 | 0.46 | 99 | 1013.2 |
| 20260506100702 | 7 | 317 | 4.8 | 8.0 | 0.05 | 0.46 | 0.46 | 98 | 1012.8 |
| 20260506100203 | 7 | 318 | 3.2 | 8.0 | 0.08 | 0.46 | 0.46 | 98 | 1012.6 |
| 20260506095703 | 7 | 337 | 3.2 | 8.0 | 0.08 | 0.46 | 0.46 | 97 | 1012.5 |
| 20260506095203 | 7 | 311 | 1.6 | 9.7 | 0.08 | 0.46 | 0.46 | 97 | 1012.2 |
| 20260506094703 | 7 | 346 | 3.2 | 8.0 | 0.05 | 0.43 | 0.43 | 97 | 1012.2 |
| 20260506094203 | 7 | 84 | 6.4 | 11.3 | 0.05 | 0.43 | 0.43 | 98 | 1012.2 |
| 20260506093703 | 7 | 24 | 4.8 | 9.7 | 0.05 | 0.43 | 0.43 | 98 | 1012.8 |
| 20260506093203 | 7 | 40 | 8.0 | 12.9 | 0.08 | 0.43 | 0.43 | 99 | 1012.8 |
| 20260506092703 | 7 | 0 | 3.2 | 9.7 | 0.10 | 0.43 | 0.43 | 99 | 1012.8 |
| 20260506092203 | 7 | 3 | 6.4 | 12.9 | 0.10 | 0.43 | 0.43 | 99 | 1012.8 |
| 20260506091703 | 7 | 125 | 4.8 | 12.9 | 0.08 | 0.41 | 0.41 | 99 | 1012.7 |
| 20260506091203 | 7 | 45 | 3.2 | 9.7 | 0.08 | 0.41 | 0.41 | 99 | 1013.0 |
| 20260506090703 | 7 | 4 | 3.2 | 8.0 | 0.08 | 0.41 | 0.41 | 99 | 1012.6 |
| 20260506090203 | 7 | 285 | 3.2 | 9.7 | 0.05 | 0.38 | 0.38 | 99 | 1013.0 |
| 20260506085703 | 7 | 39 | 3.2 | 9.7 | 0.05 | 0.38 | 0.38 | 99 | 1012.6 |
| 20260506084703 | 7 | 0 | 3.2 | 12.9 | 0.05 | 0.38 | 0.38 | 99 | 1012.8 |
| 20260506084203 | 7 | 358 | 8.0 | 20.9 | 0.05 | 0.38 | 0.38 | 99 | 1012.8 |
| 20260506082703 | 8 | 308 | 0.0 | 4.8 | 0.00 | 0.33 | 0.33 | 99 | 1012.8 |
| 20260506082202 | 8 | 295 | 4.8 | 8.0 | 0.00 | 0.33 | 0.33 | 99 | 1012.8 |
| 20260506081703 | 8 | 323 | 1.6 | 3.2 | 0.00 | 0.33 | 0.33 | 99 | 1012.5 |
| 20260506081203 | 8 | 240 | 1.6 | 4.8 | 0.00 | 0.33 | 0.33 | 99 | 1012.5 |
| 20260506080203 | 8 | 316 | 1.6 | 3.2 | 0.03 | 0.33 | 0.33 | 99 | 1012.8 |
| 20260506073203 | 8 | 210 | 1.6 | 3.2 | 0.03 | 0.33 | 0.33 | 99 | 1012.8 |
| 20260506072703 | 8 | 209 | 3.2 | 4.8 | 0.03 | 0.33 | 0.33 | 99 | 1012.5 |
| 20260506072203 | 8 | 285 | 3.2 | 8.0 | 0.03 | 0.33 | 0.33 | 99 | 1012.5 |
| 20260506071703 | 8 | 176 | 3.2 | 4.8 | 0.03 | 0.33 | 0.33 | 99 | 1012.5 |
| 20260506070703 | 8 | 153 | 3.2 | 11.3 | 0.03 | 0.33 | 0.33 | 99 | 1013.2 |
| 20260506070204 | 8 | 162 | 8.0 | 11.3 | 0.00 | 0.30 | 0.30 | 99 | 1012.5 |
| 20260506062203 | 8 | 238 | 1.6 | 4.8 | 0.00 | 0.30 | 0.30 | 99 | 1013.2 |
| 20260506061703 | 8 | 246 | 3.2 | 4.8 | 0.00 | 0.30 | 0.30 | 99 | 1013.2 |
| 20260506061203 | 8 | 146 | 3.2 | 4.8 | 0.00 | 0.30 | 0.30 | 99 | 1013.2 |
| 20260506060703 | 8 | 310 | 3.2 | 4.8 | 0.00 | 0.30 | 0.30 | 99 | 1013.7 |
| 20260506060203 | 8 | 294 | 3.2 | 4.8 | 0.00 | 0.30 | 0.30 | 99 | 1013.5 |
| 20260506051203 | 8 | 255 | 3.2 | 4.8 | 0.00 | 0.30 | 0.30 | 99 | 1013.9 |
| 20260506050203 | 8 | 346 | 1.6 | 4.8 | 0.00 | 0.30 | 0.30 | 99 | 1013.5 |
| 20260506044703 | 8 | 356 | 3.2 | 3.2 | 0.03 | 0.30 | 0.30 | 99 | 1013.5 |
| 20260506043703 | 8 | 310 | 3.2 | 4.8 | 0.03 | 0.30 | 0.30 | 99 | 1014.2 |
| 20260506043204 | 8 | 284 | 3.2 | 4.8 | 0.03 | 0.30 | 0.30 | 99 | 1014.0 |
| 20260506042704 | 8 | 324 | 3.2 | 4.8 | 0.03 | 0.30 | 0.30 | 99 | 1013.9 |
| 20260506042203 | 8 | 283 | 1.6 | 4.8 | 0.03 | 0.30 | 0.30 | 99 | 1014.0 |
| 20260506041703 | 9 | 254 | 3.2 | 8.0 | 0.03 | 0.30 | 0.30 | 99 | 1014.4 |
| 20260506041203 | 9 | 242 | 3.2 | 4.8 | 0.05 | 0.30 | 0.30 | 99 | 1014.3 |
| 20260506040703 | 9 | 320 | 4.8 | 4.8 | 0.05 | 0.30 | 0.30 | 99 | 1014.2 |
| 20260506040204 | 9 | 336 | 0.0 | 3.2 | 0.08 | 0.30 | 0.30 | 99 | 1014.5 |
| 20260506035703 | 9 | 343 | 3.2 | 8.0 | 0.10 | 0.30 | 0.30 | 99 | 1014.3 |
| 20260506035204 | 9 | 329 | 4.8 | 8.0 | 0.13 | 0.30 | 0.30 | 99 | 1014.2 |
| 20260506034204 | 9 | 310 | 3.2 | 12.9 | 0.10 | 0.28 | 0.28 | 99 | 1014.3 |
| 20260506033204 | 9 | 350 | 4.8 | 9.7 | 0.10 | 0.28 | 0.28 | 99 | 1014.4 |
| 20260506032703 | 9 | 295 | 4.8 | 9.7 | 0.10 | 0.28 | 0.28 | 99 | 1014.1 |
| 20260506032204 | 9 | 313 | 3.2 | 4.8 | 0.10 | 0.28 | 0.28 | 99 | 1014.2 |
| 20260506031704 | 9 | 244 | 1.6 | 4.8 | 0.10 | 0.28 | 0.28 | 98 | 1014.2 |
| 20260506031204 | 9 | 215 | 3.2 | 4.8 | 0.08 | 0.25 | 0.25 | 98 | 1014.5 |